Regional Weather Roundup
Issued by NWS

Home | Current Version | Previous Version | Text Only | Print | Product List | Glossary On
Versions: 1 2 3 4 5 6 7 8 9 10 11 12 13 14 15 16 17 18 19 20 21 22 23 24 25 26 27 28 29 30 31 32 33 34 35 36 37 38 39 40 41 42 43 44 45 46 47 48 49 50
000
ASUS43 KLSX 230507
RWRMO

WEATHER SUMMARY FOR MISSOURI
NATIONAL WEATHER SERVICE SPRINGFIELD MO
1200 AM CDT WED APR 23 2014

NOTE: "FAIR" INDICATES FEW OR NO CLOUDS BELOW 12,000 FEET WITH NO
       SIGNIFICANT WEATHER AND/OR OBSTRUCTIONS TO VISIBILITY.
       CURRENT SKY AND/OR WEATHER CONDITIONS ARE NOT AVAILABLE FOR
       CHILLICOTHE AND FARMINGTON.

MOZ001>031-035>038-043-044-053-054-230600-
...NORTHERN AND WESTERN MISSOURI...

CITY           SKY/WX    TMP DP  RH WIND       PRES   REMARKS
KANSAS CTY INT MOCLDY    58  33  39 E9        30.01S
KANSAS C DTWN  CLEAR     58  35  42 E6        30.00F
LEE`S SUMMIT   CLEAR     55  34  45 E6        30.01F
ST JOSEPH      PTCLDY    57  34  41 E8        30.01S
CHILLICOTHE      N/A     53  40  61 CALM      30.04S
KIRKSVILLE     PTCLDY    48  33  56 NE5       30.05S

$$
MOZ066>068-077>081-088>096-101>105-230600-
...SOUTHWEST MISSOURI...

CITY           SKY/WX    TMP DP  RH WIND       PRES   REMARKS
SPRINGFIELD    CLEAR     49  38  65 CALM      30.01S
JOPLIN         FAIR      53  38  56 E5        30.00S

$$
MOZ032>034-039>042-045>050-055>058-069>072-230600-
...CENTRAL MISSOURI...

CITY           SKY/WX    TMP DP  RH WIND       PRES   REMARKS
COLUMBIA       CLEAR     49  36  61 NE8       30.04R
JEFFERSON CITY CLEAR     50  39  66 CALM      30.04R
ROLLA          CLEAR     47  34  60 NE3       30.01S
SEDALIA        CLEAR     54  36  50 E5        30.03S
WHITEMAN AFB   CLEAR     51  32  48 CALM      30.02R
OSAGE BEACH    CLEAR     54  32  43 NE3       30.04R

$$
MOZ051-052-059>065-230600-
...EAST CENTRAL MISSOURI...

CITY           SKY/WX    TMP DP  RH WIND       PRES   REMARKS
ST LOUIS INTL  PTCLDY    55  35  47 N3        30.02S
SPIRIT OF STL  CLEAR     44  39  82 W5        30.02S
ST CHARLES     CLEAR     51  38  60 N5        30.02R

$$
MOZ072>076-082>087-097>100-106>115-230600-
...SOUTH CENTRAL AND SOUTHEAST MISSOURI...

CITY           SKY/WX    TMP DP  RH WIND       PRES   REMARKS
CAPE GIRARDEAU CLEAR     48  43  82 CALM      29.99S
FARMINGTON     CLEAR     50  34  53 CALM      30.03S
POPLAR BLUFF   CLEAR     54  43  66 CALM      29.98S
WEST PLAINS    CLEAR     52  32  46 NE7       30.01S

$$



USA.gov is the U.S. government's official web portal to all federal, state and local government web resources and services.